National Weather Service Raw Text Product

Displaying AFOS PIL: RWRCLE Received: 2018-02-20 21:00 UTC


133 
ASUS41 KCLE 202100
RWRCLE
OHIO REGIONAL WEATHER ROUNDUP
NATIONAL WEATHER SERVICE WILMINGTON, OH
400 PM EST TUE FEB 20 2018

NOTE: "FAIR" INDICATES FEW OR NO CLOUDS BELOW 12,000 FEET WITH NO
SIGNIFICANT WEATHER AND/OR OBSTRUCTIONS TO VISIBILITY.

OHZ001>008-015>018-024>027-034-035-043-044-202200-
   NORTHWEST OHIO
  
CITY           SKY/WX    TMP DP  RH WIND       PRES   REMARKS
DEFIANCE       FAIR      67  62  84 S8        29.98F                  
FINDLAY        FAIR      72  57  59 S18G30    30.02F                  
TOLEDO EXPRESS PTSUNNY   65  64  97 S7        29.99F                  
TOLEDO EXEC    FAIR      66  61  84 S10       30.01F                  
LIMA           FAIR      72  58  61 S17G25    30.03F                  
$$
 
OHZ009>014-019>023-028>033-038-089-202200-
   NORTHEAST OHIO
  
CITY           SKY/WX    TMP DP  RH WIND       PRES   REMARKS
CLE-HOPKINS    PTSUNNY   72  58  61 SW14      30.10S                  
CLE-LAKEFRONT  CLOUDY    71  57  61 S12       30.07S                  
CUY CO. ARPT   LGT RAIN  70  59  68 S12       30.10R                  
LORAIN-ELYRIA  FAIR      71  55  56 SW12G22   30.07F                  
ASHTABULA      CLOUDY    67  59  75 S10       30.11S                  
AKRON-CANTON   CLOUDY    74  55  51 SW12G21   30.12S                  
WOOSTER        NOT AVBL                                               
MANSFIELD      FAIR      72  57  59 S21G29    30.10S                  
YOUNGSTOWN     CLOUDY    71  56  58 SW10      30.13F                  
$$
 
OHZ042-051>053-060>062-070>072-077>081-202200-
  SOUTHWEST OHIO
  
CITY           SKY/WX    TMP DP  RH WIND       PRES   REMARKS
CINC-COVINGTON CLOUDY    76  56  49 S17G30    30.09S                  
CINC-LUNKEN    PTSUNNY   77  55  46 S18       30.10R                  
HAMILTON       FAIR      78  55  44 S14G26    30.09S                  
DAYTON         NOT AVBL                                               
WRIGHT-PAT AFB PTSUNNY   77  53  43 SW22G31   30.08S                  
DAYTON GENERAL FAIR      77  53  43 SW15G23   30.08S                  
WILMINGTON     PTSUNNY   74  57  55 S15G26    30.11R                  
$$

OHZ036-037-039>041-045>050-054>059-063>069-073>076-082>088-202200-
  CENTRAL AND SOUTHEAST OHIO
  
CITY           SKY/WX    TMP DP  RH WIND       PRES   REMARKS
COLUMBUS       PTSUNNY   76  55  48 S21G29    30.12S                  
OSU AIRPORT    PTSUNNY   75  57  53 S20G29    30.10R                  
BOLTON FIELD   MOSUNNY   75  55  50 SW24G33   30.13R                  
RICKENBACK AFB NOT AVBL                                               
NEWARK         FAIR      77  54  44 SW18G26   30.12R                  
MARION         FAIR      72  57  59 SW18G25   30.09S                  
LANCASTER      FAIR      78  54  43 SW14G25   30.14S                  
ZANESVILLE     FAIR      77  52  41 SW16G26   30.14S                  
NEW PHILLY     FAIR      77  53  43 SW9G25    30.13F                  
$$